Location: General Nathan Twining Observatory
(34.5931°N, 106.8201°W)
Time: 23:23:43
(UTC-07:00)

ADEOS II - Pass Details

Date: 27 June 2018
Orbit: 799 x 801 km, 98.4° (Epoch: 08 December)

Event Time Altitude Azimuth Distance (km) Brightness Sun altitude
Rises 05:13:23 0° 357° (N) 3,316 5.8 -8.3°
Reaches altitude 10° 05:16:07 10° 344° (NNW) 2,382 4.8 -7.9°
Maximum altitude 05:20:13 24° 292° (WNW) 1,619 3.4 -7.2°
Drops below altitude 10° 05:24:18 10° 241° (WSW) 2,370 3.9 -6.5°
Enters shadow 05:24:58 - 236° (WSW) 2,577 4.0 -6.4°
